Volver al catálogo

ARIANE 2 DEB

LostGTO
NORAD 28565·DEBRIS·🇫🇷 France

Lanzado Jan 27, 1989 desde Guiana Space Centre

Loading…

TLE

ObsoletoSource: Space-Track

Época: May 31, 2026, 21:22 UTC

1 28565U 89006AG  26151.89089665  .00000265  00000-0  22489-2 0  9995
2 28565   8.5151 314.3484 7089191 320.8251   4.8491  2.39503558190210

Sigue ARIANE 2 DEB en tiempo real con AllMySat

Download on the App Store